Weather History for Orangeburg, SC

Change the Weather History Date:

Friday, March 14, 2014

  Actual Average Record
Temperature  
Mean Temperature 47 °F 56 °F  
Max Temperature 65 °F 68 °F 87 °F (1955)
Min Temperature 29 °F 44 °F 24 °F (1993)
Degree Days  
Heating Degree Days 18 9  
Month to date heating degree days 207 153  
Since 1 July heating degree days 2071 2085  
Cooling Degree Days 0 1  
Month to date cooling degree days 0 6  
Year to date cooling degree days 6 9  
Moisture  
Dew Point 27 °F    
Average Humidity 52    
Maximum Humidity 85    
Minimum Humidity 14    
Precipitation  
Precipitation 0.00 in 0.13 in 1.25 in (1986)
Month to date precipitation 1.51 1.85  
Year to date precipitation 7.43 9.42  
Sea Level Pressure  
Sea Level Pressure 30.26 in    
Wind  
Wind Speed 6 mph (South)    
Max Wind Speed 20 mph    
Max Gust Speed 26 mph    
Visibility 10 miles    
Events      
T = Trace of Precipitation, MM = Missing Value Source: NWS Daily Summary

Daily Weather History Graph

Daily Weather History Graph

Search for Another Location

Airport:

Trip Planner

Search our weather history database for the weather conditions in past years. The results will help you decide how hot, cold, wet, or windy it might be!

Date:

Astronomy

Mar. 14, 2014 Rise Set
Actual Time 7:35 AM EDT 7:30 PM EDT
Civil Twilight 7:10 AM EDT 7:55 PM EDT
Nautical Twilight 6:41 AM EDT 8:24 PM EDT
Astronomical Twilight 6:12 AM EDT 8:53 PM EDT
Moon 5:54 PM EDT (3/14) 6:09 AM EDT (3/14)
Length of Visible Light 12h 44m
Length of Day
11h 55m
Waxing Gibbous, 96% of the Moon is Illuminated
Mar 14
Waxing Gibbous
Mar 16
Full
Mar 23
Last Quarter
Mar 30
New
Apr 7
First Quarter

Hourly Weather History & Observations

Time (EDT) Temp. Dew Point Humidity Pressure Visibility Wind Dir Wind Speed Gust Speed Precip Events Conditions
12:53 AM 34.0 °F 28.0 °F 79% 30.25 in 10.0 mi Calm Calm - N/A   Clear
1:53 AM 33.1 °F 27.0 °F 78% 30.26 in 10.0 mi Calm Calm - N/A   Clear
2:53 AM 32.0 °F 27.0 °F 82% 30.26 in 10.0 mi Calm Calm - N/A   Clear
3:53 AM 35.1 °F 30.9 °F 85% 30.27 in 10.0 mi Calm Calm - N/A   Clear
4:53 AM 32.0 °F 28.9 °F 88% 30.28 in 10.0 mi Calm Calm - N/A   Clear
5:53 AM 30.0 °F 27.0 °F 88% 30.29 in 10.0 mi Calm Calm - N/A   Clear
6:53 AM 30.0 °F 26.1 °F 85% 30.31 in 10.0 mi Calm Calm - N/A   Clear
7:53 AM 30.0 °F 26.1 °F 85% 30.32 in 9.0 mi Calm Calm - N/A   Clear
8:53 AM 37.9 °F 30.0 °F 73% 30.33 in 10.0 mi Calm Calm - N/A   Clear
9:53 AM 46.9 °F 27.0 °F 46% 30.35 in 10.0 mi Variable 5.8 mph - N/A   Clear
10:53 AM 53.1 °F 19.0 °F 26% 30.35 in 10.0 mi SSE 10.4 mph - N/A   Clear
11:53 AM 57.0 °F 18.0 °F 22% 30.35 in 10.0 mi South 10.4 mph - N/A   Clear
12:53 PM 60.1 °F 16.0 °F 18% 30.33 in 10.0 mi South 11.5 mph - N/A   Clear
1:53 PM 63.0 °F 12.0 °F 14% 30.30 in 10.0 mi SSW 15.0 mph 19.6 mph N/A   Clear
2:53 PM 63.0 °F 17.1 °F 17% 30.26 in 10.0 mi SSW 15.0 mph 20.7 mph N/A   Clear
3:53 PM 64.0 °F 21.0 °F 19% 30.22 in 10.0 mi SW 12.7 mph - N/A   Clear
4:53 PM 64.0 °F 23.0 °F 21% 30.20 in 10.0 mi South 12.7 mph 19.6 mph N/A   Clear
5:53 PM 63.0 °F 26.1 °F 25% 30.17 in 10.0 mi South 10.4 mph 18.4 mph N/A   Clear
6:53 PM 62.1 °F 28.9 °F 29% 30.17 in 10.0 mi South 10.4 mph - N/A   Clear
7:53 PM 57.9 °F 32.0 °F 37% 30.17 in 10.0 mi South 5.8 mph - N/A   Clear
8:53 PM 55.0 °F 35.1 °F 47% 30.17 in 10.0 mi South 4.6 mph - N/A   Clear
9:53 PM 54.0 °F 37.0 °F 53% 30.17 in 10.0 mi South 6.9 mph - N/A   Clear
10:53 PM 52.0 °F 37.9 °F 59% 30.19 in 10.0 mi SSW 4.6 mph - N/A   Clear
11:53 PM 51.1 °F 37.9 °F 61% 30.19 in 10.0 mi SSW 4.6 mph - N/A   Clear